TimeCDT,TemperatureF,Dew PointF,Humidity,Sea Level PressureIn,VisibilityMPH,Wind Direction,Wind SpeedMPH,Gust SpeedMPH,PrecipitationIn,Events,Conditions,WindDirDegrees,DateUTC
12:55 AM,44.6,35.6,71,30.02,10.0,Calm,Calm,-,N/A,,Clear,0,2011-10-17 05:55:00
1:55 AM,44.6,39.2,81,30.04,10.0,NW,5.8,-,N/A,,Clear,320,2011-10-17 06:55:00
2:55 AM,45.0,39.0,80,30.03,10.0,SSE,3.5,-,N/A,,Clear,150,2011-10-17 07:55:00
3:55 AM,46.9,39.0,74,30.00,10.0,SE,4.6,-,N/A,,Clear,140,2011-10-17 08:55:00
4:55 AM,46.9,37.9,71,29.99,10.0,Calm,Calm,-,N/A,,Clear,0,2011-10-17 09:55:00
5:55 AM,44.1,37.9,79,29.99,10.0,Calm,Calm,-,N/A,,Clear,0,2011-10-17 10:55:00
6:55 AM,42.8,37.4,81,29.98,10.0,Calm,Calm,-,N/A,,Clear,0,2011-10-17 11:55:00
7:55 AM,44.1,39.0,82,30.00,10.0,North,3.5,-,N/A,,Clear,360,2011-10-17 12:55:00
8:55 AM,46.0,39.0,76,29.99,10.0,East,3.5,-,N/A,,Clear,100,2011-10-17 13:55:00
9:55 AM,48.9,37.0,64,30.00,10.0,East,4.6,-,N/A,,Clear,100,2011-10-17 14:55:00
10:55 AM,54.0,37.0,53,29.97,10.0,East,11.5,-,0.01,,Clear,90,2011-10-17 15:55:00
11:55 AM,59.0,35.1,41,29.97,10.0,East,10.4,-,N/A,,Clear,80,2011-10-17 16:55:00
12:55 PM,57.9,30.9,36,29.96,10.0,ENE,11.5,-,N/A,,Clear,60,2011-10-17 17:55:00
1:55 PM,57.9,28.9,33,29.95,10.0,NE,16.1,23.0,N/A,,Clear,50,2011-10-17 18:55:00
2:55 PM,55.9,30.0,37,29.97,10.0,NNE,16.1,21.9,N/A,,Scattered Clouds,20,2011-10-17 19:55:00
3:55 PM,55.0,28.9,37,29.99,10.0,NNE,15.0,-,N/A,,Overcast,20,2011-10-17 20:55:00
4:55 PM,55.0,28.9,37,30.02,10.0,NNE,13.8,23.0,N/A,,Overcast,30,2011-10-17 21:55:00
5:55 PM,53.1,32.0,45,30.04,10.0,NNE,16.1,-,N/A,,Mostly Cloudy,30,2011-10-17 22:55:00
6:55 PM,50.0,36.0,59,30.07,10.0,North,8.1,-,N/A,,Overcast,10,2011-10-17 23:55:00
7:55 PM,48.9,37.9,66,30.11,10.0,North,9.2,-,N/A,,Overcast,350,2011-10-18 00:55:00
8:55 PM,48.0,39.0,71,30.12,10.0,NNW,10.4,-,N/A,,Overcast,340,2011-10-18 01:55:00
9:55 PM,46.4,42.8,87,30.12,10.0,NNW,17.3,25.3,N/A,Rain,Light Rain,340,2011-10-18 02:55:00
10:55 PM,43.0,39.0,86,30.14,10.0,North,15.0,24.2,0.02,Rain,Light Rain,350,2011-10-18 03:55:00
11:55 PM,43.0,37.9,82,30.10,10.0,North,6.9,-,0.01,,Overcast,360,2011-10-18 04:55:00